Tracking 19125 objects as of 19-Apr-2018
HD Live streaming from Space Station
objects crossing your sky now

ORBCOMM FM 32

Track ORBCOMM FM 32 now!
10-day predictions
ORBCOMM FM 32 is classified as:


NORAD ID: 25982
Int'l Code: 1999-065C
Perigee: 787.5 km
Apogee: 796.5 km
Inclination: 45.0 °
Period: 100.6 minutes
Semi major axis: 7162 km
RCS: 0.8421 m2 (medium)
Launch date: December 4, 1999
Source: ORBCOMM (ORB)
Launch site: AIR FORCE EASTERN TEST RANGE (AFETR)
aabbcc
Your satellite tracking list
Your tracking list is empty




NASA's NSSDC Master Catalog

Two Line Element Set (TLE):
1 25982U 99065C   18108.56700966 +.00000023 +00000-0 +60303-4 0  9993
2 25982 045.0179 159.3594 0006274 309.6929 201.7451 14.32063296959411
Source of the keplerian elements: AFSPC